Showing default

BRITE-A TUGSAT-1, 39091

Orbit data source: Space-Track

BRITE-A TUGSAT-1, 39091 is a payload satellite owned by TU Graz (AT) in SSO that was launched on Mon, 25 Feb 2013 UTC via a PSLV launch vehicle from the Sirharikota (SRI). Payload-class satellites include a variety of spacecraft equipped with specific instruments for various scientific and technological missions. These include communications satellites like Starlink; space stations such as the ISS; scientific satellites like the Hubble; Earth observation satellites from companies like Planet Labs, Umbra, and HawkEye 360; GPS; miniature CubeSats for education and research; and military/defense satellites.

Loading next visibility...
Identifier
39091, 2013-009F
Orbit
SSO
Country
Flag of ATAT / ASRA
Related business
Manufacturer
TUG/UTIAS
Mission
Operational Amateur Astronomy
Bus & Motor
GNB, Unknown motor
Mass
7 kg wet, 7 kg dry
Launch date (UTC)
2013-02-25 (13 years ago)
Launch vehicle
PSLV
Launch site
Sirharikota (SRI)
Object type
Payload
Rocket body
Debris
Shape & HBR
Box, 0.1 m
Radar Cross Section
0.060 m², Medium (>0.1 m² and < 1m²)

Expand to show TLE details & history
Last TLE update: 22 hours ago

TLE from 22 hours ago
0 BRITE-A TUGSAT-1
1 39091U 13009F   26094.44611470  .00000349  00000-0  13339-3 0  9991
2 39091  98.3975 275.7116 0011386  99.7122 260.5351 14.36511934686462
Epoch: 2026-04-04T10:42Z
TLE epoch observation values (Epoch: 2026-04-04T10:42:24.310Z)
Latitude
-0.00001°
Longitude
-77.65547°
Altitude
774.341 km
Speed
7.466 km/s
True Right ascension
18h 22m 50s
True Declination
0° 00' 00"
Sunlit
Object was in daylight at epoch
Visualization orbit readout
Latitude
Unknown
Longitude
Unknown
Altitude
Unknown
Speed
Unknown
Apparent Right ascension
Unknown
Apparent Declination
Unknown
Sunlit
N/A
Visualization observer readout
Local Sidereal Time
15:01:54
Azimuth
Unknown
Elevation
Unknown
Doppler factor
Unknown
Orbital elements
Apogee altitude
775.304 km
Perigee altitude
759.032 km
Semi-major axis
7,145.305 km
Eccentricity
0.00114
Inclination
98.3975°
RAAN
275.7116°
Arg. of periapsis
99.7122°
True anomaly
260.40643°
Mean anomaly
260.5351°
Eccentric anomaly
260.47076°
Mean motion
3.59345 °/min
Orbital period
100.18 mins
BSTAR
0.00013339
Loading maneuver chart data...
Computing Atmospheric mass density...
Loading historical data...
Loading historical data...
Loading historical data...
Loading historical data...
Loading historical data...
Loading historical data...
Loading historical data...

Documentation

Showing up to 5 results
|